ORBCOMM-X 1 21576U 91050C 26103.60762785 .00000167 00000+0 61850-4 0 9996 2 21576 98.3005 168.4922 0003657 19.0715 341.0612 14.43543557825456 ORBCOMM FM01 1 23545U 95017A 26103.26039533 .00004105 00000+0 38039-3 0 9999 2 23545 69.9619 43.0454 0006787 240.0556 119.9928 14.95232797657287 ORBCOMM FM02 1 23546U 95017B 26103.57972591 .00005137 00000+0 44814-3 0 9998 2 23546 69.9620 59.9665 0008132 239.1987 120.8371 14.97425159657026 ORBCOMM FM08 1 25112U 97084A 26103.97303630 .00000745 00000+0 24208-3 0 9996 2 25112 45.0152 2.5122 0007057 341.1269 18.9321 14.47100615484927 ORBCOMM FM10 1 25113U 97084B 26103.72859855 .00000727 00000+0 23848-3 0 9994 2 25113 45.0167 6.6663 0005256 309.7126 50.3262 14.46821219660020 ORBCOMM FM11 1 25114U 97084C 26103.78658874 .00000700 00000+0 23244-3 0 9990 2 25114 45.0151 7.5825 0006072 310.0486 49.9833 14.46555654484989 ORBCOMM FM12 1 25115U 97084D 26103.67528740 .00000762 00000+0 24918-3 0 9994 2 25115 45.0156 7.8309 0005104 309.2414 50.7984 14.46585814484765 ORBCOMM FM09 1 25116U 97084E 26103.73890202 .00000748 00000+0 24622-3 0 9993 2 25116 45.0162 8.8191 0006191 295.6212 64.4000 14.46403744484979 ORBCOMM FM05 1 25117U 97084F 26103.98474248 .00000790 00000+0 25377-3 0 9994 2 25117 45.0162 2.3946 0002766 321.9126 38.1530 14.47213413484168 ORBCOMM FM06 1 25118U 97084G 26103.74338208 .00000920 00000+0 28776-3 0 9995 2 25118 45.0154 2.9074 0001739 332.9290 61.4320 14.47400675485054 ORBCOMM FM07 1 25119U 97084H 26103.67952370 .00000842 00000+0 26663-3 0 9996 2 25119 45.0150 3.9531 0003458 312.4832 47.5728 14.47402099485032 ORBCOMM FM03 1 25158U 98007B 26103.73043338 .00000715 00000+0 29182-3 0 9995 2 25158 107.9615 33.3650 0042869 81.3881 279.2113 14.35387250467156 ORBCOMM FM04 1 25159U 98007C 26103.73405367 .00000621 00000+0 25908-3 0 9998 2 25159 107.9608 36.7920 0038762 78.3098 282.2388 14.35610082467340 ORBCOMM FM17 1 25413U 98046A 26103.78127149 .00000442 00000+0 19964-3 0 9994 2 25413 44.9945 278.1496 0002270 261.4962 98.5628 14.35813326446367 ORBCOMM FM18 1 25414U 98046B 26103.95513662 .00000537 00000+0 21586-3 0 9991 2 25414 44.9919 186.3973 0003850 328.4093 31.6525 14.39538304447575 ORBCOMM FM19 1 25415U 98046C 26103.97412003 .00000632 00000+0 24672-3 0 9996 2 25415 44.9931 188.7575 0003054 310.8518 225.6288 14.39369271447528 ORBCOMM FM20 1 25416U 98046D 26103.61168717 .00000439 00000+0 19040-3 0 9996 2 25416 44.9934 197.6983 0001466 247.5473 112.5219 14.37970884447495 ORBCOMM FM16 1 25417U 98046E 26103.91899886 .00000474 00000+0 19444-3 0 9995 2 25417 44.9925 183.5622 0003142 344.2535 15.8216 14.39933639447588 ORBCOMM FM15 1 25418U 98046F 26103.41704084 .00000597 00000+0 23498-3 0 9996 2 25418 44.9959 192.0238 0002773 340.7817 19.2927 14.39555424447496 ORBCOMM FM14 1 25419U 98046G 26103.90567390 .00000551 00000+0 21836-3 0 9992 2 25419 44.9948 186.9751 0002127 317.6627 42.4058 14.39999168447548 ORBCOMM FM13 1 25420U 98046H 26103.95543036 .00000503 00000+0 20914-3 0 9993 2 25420 44.9966 197.8877 0004249 326.5291 33.5288 14.38530230446537 ORBCOMM FM21 1 25475U 98053A 26103.76430268 .00000464 00000+0 19844-3 0 9998 2 25475 45.0083 285.2486 0000864 270.0374 90.0375 14.38086389440508 ORBCOMM FM22 1 25476U 98053B 26103.83981710 .00000577 00000+0 22947-3 0 9993 2 25476 45.0075 277.0777 0002527 282.7987 77.2579 14.39335204440574 ORBCOMM FM23 1 25477U 98053C 26103.85663568 .00000542 00000+0 22267-3 0 9991 2 25477 45.0082 286.4096 0001822 277.0663 82.9979 14.38358696440673 ORBCOMM FM24 1 25478U 98053D 26103.66727971 .00000553 00000+0 22323-3 0 9995 2 25478 45.0081 283.3703 0001514 281.9509 78.1169 14.39013951440711 ORBCOMM FM25 1 25479U 98053E 26103.85354767 .00000626 00000+0 24694-3 0 9990 2 25479 45.0068 280.8083 0003620 309.4619 50.5909 14.38974404441038 ORBCOMM FM26 1 25480U 98053F 26103.79818464 .00000442 00000+0 19177-3 0 9990 2 25480 45.0068 279.8516 0005377 329.4365 30.6170 14.37891149440907 ORBCOMM FM27 1 25481U 98053G 26103.76431046 .00000594 00000+0 23632-3 0 9994 2 25481 45.0054 281.3107 0000337 203.6271 156.4562 14.39019545440958 ORBCOMM FM28 1 25482U 98053H 26103.70339217 .00000562 00000+0 22589-3 0 9991 2 25482 45.0049 218.7784 0002945 354.4083 5.6732 14.39107911441636 ORBCOMM FM30 1 25980U 99065A 26103.68465299 .00000443 00000+0 19167-3 0 9991 2 25980 45.0304 106.5149 0004438 61.1112 299.0182 14.38054043377694 ORBCOMM FM31 1 25981U 99065B 26103.95061865 .00000432 00000+0 18839-3 0 9996 2 25981 45.0218 98.6916 0001607 97.0101 263.0931 14.37972778377284 ORBCOMM FM32 1 25982U 99065C 26103.43012294 .00000435 00000+0 19270-3 0 9995 2 25982 45.0141 119.7352 0003662 93.6567 266.4700 14.37034729377770 ORBCOMM FM33 1 25983U 99065D 26103.68640680 .00000495 00000+0 19733-3 0 9999 2 25983 45.0301 9.3148 0007289 130.3932 229.7555 14.40868340379398 ORBCOMM FM36 1 25984U 99065E 26103.41026094 .00000670 00000+0 26049-3 0 9991 2 25984 45.0378 107.0709 0003910 332.5635 27.5007 14.39075409377652 ORBCOMM FM35 1 25985U 99065F 26103.75353754 .00000521 00000+0 21767-3 0 9992 2 25985 45.0381 112.9661 0001279 101.7581 258.3411 14.37958695378032 ORBCOMM FM34 1 25986U 99065G 26103.24033711 .00000433 00000+0 18903-3 0 9995 2 25986 45.0376 115.9326 0002847 10.7006 349.3903 14.37854097378073 ORBCOMM FM38 1 33060U 08031A 26103.29351058 .00000924 00000+0 13945-3 0 9998 2 33060 48.4411 323.3636 0004987 255.1379 104.8985 14.82885940959267 ORBCOMM FM41 1 33061U 08031B 26103.92786903 .00000829 00000+0 12921-3 0 9997 2 33061 48.4448 329.2077 0004201 242.2870 130.8400 14.82413811958831 ORBCOMM FM29 1 33062U 08031C 26103.95135865 .00000849 00000+0 13114-3 0 9993 2 33062 48.4401 336.4571 0005796 241.9776 130.6896 14.82593521958756 ORBCOMM FM39 1 33063U 08031D 26103.68516293 .00000750 00000+0 12336-3 0 9998 2 33063 48.4418 5.5023 0006535 211.1173 148.9356 14.80954036958318 ORBCOMM FM37 1 33064U 08031E 26103.95423733 .00000741 00000+0 12168-3 0 9998 2 33064 48.4411 352.2797 0005265 231.9803 141.1964 14.81145387958616 ORBCOMM FM40 1 33065U 08031F 26103.90677640 .00001033 00000+0 14950-3 0 9998 2 33065 48.4427 331.0549 0006317 247.7454 125.1632 14.83834971958799 VESSELSAT 1 1 37840U 11058C 26103.57090018 .00000324 00000+0 31751-4 0 9998 2 37840 19.9619 76.1493 0013471 250.6781 109.2167 14.11427884748795 ORBCOMM FM109 1 40086U 14040A 26103.78692568 .00000274 00000+0 94407-4 0 9990 2 40086 47.0045 35.9481 0002354 289.0773 70.9858 14.58776339624945 ORBCOMM FM107 1 40087U 14040B 26103.79949497 .00000257 00000+0 90467-4 0 9991 2 40087 47.0060 36.7218 0001374 249.2277 110.8462 14.58863443625026 ORBCOMM FM106 1 40088U 14040C 26103.93969869 .00000366 00000+0 91130-4 0 9992 2 40088 47.0597 193.7089 0015851 22.3627 337.7953 14.70387790627720 ORBCOMM FM111 1 40089U 14040D 26103.74269867 .00001161 00000+0 14643-3 0 9990 2 40089 47.0021 2.7508 0028677 195.2358 164.7679 14.88547664634974 ORBCOMM FM104 1 40090U 14040E 26103.64192074 .00000223 00000+0 86501-4 0 9997 2 40090 47.0049 74.7352 0015326 140.3624 219.8385 14.57214852624438 ORBCOMM FM103 1 40091U 14040F 26103.92656852 .00000270 00000+0 93517-4 0 9995 2 40091 47.0064 36.8690 0001956 240.7035 119.3655 14.58767260608001 ORBCOMM FM114 1 41179U 15081A 26103.87312223 .00000255 00000+0 90337-4 0 9994 2 41179 47.0052 306.0567 0002686 264.5154 95.5426 14.58786354548366 ORBCOMM FM119 1 41180U 15081B 26103.73681187 .00000241 00000+0 87329-4 0 9991 2 41180 46.9999 216.0610 0001280 302.4765 57.5997 14.58727826549590 ORBCOMM FM105 1 41181U 15081C 26103.78563230 .00000083 00000+0 67647-4 0 9990 2 41181 47.0013 250.2941 0002328 233.2777 126.7890 14.45522656544232 ORBCOMM FM110 1 41182U 15081D 26103.86209049 .00000325 00000+0 10503-3 0 9992 2 41182 47.0026 305.5695 0002735 144.8070 215.2997 14.58805437548233 ORBCOMM FM118 1 41183U 15081E 26103.89676066 .00000345 00000+0 10930-3 0 9999 2 41183 47.0048 305.7286 0002604 101.0787 259.0392 14.58802881548348 ORBCOMM FM112 1 41184U 15081F 26103.69419269 .00000358 00000+0 11221-3 0 9996 2 41184 46.9987 215.1690 0002709 259.9595 100.0985 14.58799720549530 ORBCOMM FM113 1 41185U 15081G 26103.74003611 .00000238 00000+0 86761-4 0 9992 2 41185 47.0002 215.3267 0002297 265.7220 94.3404 14.58788991549523 ORBCOMM FM115 1 41186U 15081H 26103.84622477 .00000359 00000+0 10314-3 0 9995 2 41186 46.9991 48.8598 0001327 332.7470 27.3347 14.63186214551790 ORBCOMM FM108 1 41187U 15081J 26103.77114056 .00000253 00000+0 89916-4 0 9995 2 41187 47.0036 126.7321 0003700 265.2571 94.7892 14.58804498550676 ORBCOMM FM117 1 41188U 15081K 26103.46260206 .00000259 00000+0 91134-4 0 9992 2 41188 46.9998 126.8446 0004124 268.4754 91.5659 14.58799450550677 ORBCOMM FM116 1 41189U 15081L 26103.71746057 .00000380 00000+0 11680-3 0 9996 2 41189 47.0020 215.4289 0001421 161.0924 199.0015 14.58796403549527